Location: Praha
(50.0830°N, 14.4670°E)
Time: 03:37:20
(UTC+01:00)

ISS - Pass Details

Date: 18 January 2021
Orbit: 418 x 421 km, 51.6° (Epoch: 26 January)

Event Time Altitude Azimuth Distance (km) Brightness Sun altitude
Rises 18:38:25 0° 200° (SSW) 2,358 0.4 -19.5°
Reaches altitude 10° 18:41:07 10° 176° (S) 1,500 -0.9 -20.0°
Enters shadow 18:41:36 12° 169° (S) 1,390 -1.2 -20.0°
